EHI
1 1 2 5 6 5 4 4 5 4 3 3 3 2 3 2 2 1 1 3 5 6 6 5 4 3 3 3 2 1 0 0 0 0 0 0 0 0 0 0 0 0 0
2 2 3 5 7 7 5 4 4 3 2 2 2 2 2 1 1 1 2 5 6 6 6 4 3 3 3 2 1 0 0 0 0 0 0 0 0 0 0 0 0 0 0
4 4 4 5 7 7 6 4 3 2 1 2 3 4 4 2 1 1 3 4 4 4 4 4 4 4 3 2 1 2 2 1 0 0 0 0 0 0 0 0 0 0 0
4 5 6 6 6 6 4 2 2 2 2 4 6 6 6 4 2 1 1 3 2 2 3 4 5 6 5 3 3 4 4 2 2 2 1 0 0 0 0 0 0 0 0
4 4 6 7 7 4 2 1 2 2 3 5 8 8 7 6 4 2 2 3 4 4 4 5 6 6 6 5 4 4 4 3 3 3 2 1 0 0 0 0 0 0 0
5 4 6 8 9 8 6 5 5 4 4 7 9 10 10 10 9 7 7 7 7 8 8 8 7 6 5 5 4 4 4 4 4 4 3 1 1 1 0 0 0 0 0
7 6 7 10 11 13 14 12 9 7 7 9 11 12 14 14 14 14 12 11 10 11 11 10 9 6 5 4 4 5 5 5 4 3 3 2 2 1 1 0 0 0 1
9 7 8 10 12 17 22 22 17 13 12 13 15 16 18 18 18 17 15 14 13 13 13 12 10 7 4 3 4 5 6 5 4 4 4 3 2 1 1 1 1 1 2
11 9 8 8 12 20 28 31 28 23 19 17 16 16 18 19 18 17 16 15 15 15 14 13 11 7 4 4 4 5 5 5 5 5 5 5 4 3 2 2 3 3 3
13 10 8 8 13 21 30 34 32 28 24 20 16 14 15 16 15 15 15 15 16 16 15 13 10 7 5 3 3 4 4 3 3 3 4 5 5 5 4 4 5 5 5
11 10 9 11 16 22 27 32 32 29 26 23 19 16 15 15 15 15 15 15 16 17 16 14 9 6 3 1 1 2 3 2 2 2 2 3 4 4 5 5 5 5 5
10 12 13 16 19 24 28 32 33 30 28 25 21 20 19 18 17 17 17 16 16 16 14 12 9 5 2 1 1 1 2 2 2 2 2 3 2 3 4 4 4 4 4
13 16 19 22 23 26 30 32 30 28 28 28 25 25 24 20 17 17 18 16 15 13 11 8 6 4 4 4 4 3 2 1 1 1 2 3 2 2 3 3 3 3 3
19 21 24 27 27 28 30 30 26 25 27 28 28 28 27 23 19 18 18 16 14 11 8 6 4 3 4 6 6 4 3 2 1 0 1 3 2 1 1 3 3 3 2
24 25 28 31 29 26 26 25 25 25 26 27 28 28 28 27 24 21 20 17 13 9 8 6 5 4 4 4 4 5 5 5 3 1 1 1 1 0 1 2 3 3 3
27 27 29 31 28 22 20 21 22 24 26 27 28 27 26 26 26 23 21 18 13 10 10 9 7 7 5 2 1 3 6 6 4 2 1 1 1 1 0 1 1 2 2
29 28 27 27 24 20 18 18 19 22 25 25 24 22 21 21 23 21 18 16 14 13 13 12 10 9 7 2 0 1 3 4 4 4 3 2 2 1 0 0 0 1 1
28 28 26 24 22 20 18 16 16 19 22 21 18 16 15 16 18 17 15 14 14 14 14 13 11 10 6 2 0 0 1 2 4 6 5 3 2 1 0 0 0 0 1
23 25 26 24 21 20 19 17 15 17 19 18 15 14 14 14 14 15 15 15 15 15 13 12 10 8 5 2 0 0 1 3 5 5 4 2 1 0 0 0 0 0 1
20 22 23 21 19 19 19 16 14 15 16 14 12 13 13 13 13 14 15 16 16 15 12 10 9 6 4 1 0 0 1 4 5 5 2 1 0 0 0 0 0 0 0
19 19 19 17 15 14 14 12 10 10 10 8 8 9 11 12 13 14 15 16 16 14 11 8 6 3 2 0 0 0 2 3 5 4 2 0 0 0 0 0 0 0 0
16 15 14 12 9 8 8 6 5 6 5 5 5 6 8 11 13 15 16 15 14 12 10 7 3 1 0 0 0 0 1 1 3 2 1 0 0 0 0 0 0 0 0
13 11 10 9 6 6 6 5 4 4 4 4 4 4 5 7 9 10 12 12 12 11 9 6 3 1 1 0 0 0 0 0 1 1 0 0 0 0 0 0 0 0 0
10 9 8 8 7 6 6 5 4 3 3 4 4 4 3 2 3 4 6 9 9 10 9 6 4 4 3 1 0 0 0 0 0 0 0 0 0 0 0 0 0 0 0
9 9 9 9 8 6 5 5 4 3 3 3 3 2 1 0 0 1 2 4 6 7 6 5 5 5 4 2 0 0 0 0 0 0 0 0 0 0 0 0 0 0 0
8 8 9 9 8 5 3 4 4 3 3 3 3 1 0 0 0 0 1 2 3 3 3 3 4 4 2 1 0 0 0 0 0 0 0 0 0 0 0 0 0 0 0
Wind_Speed
5 4 4 4 4 3 3 4 4 3 3 2 2 1 1 0 0 1 1 1 1 2 2 1 1 1 1 1 1 1 1 1 1 1 2 2 1 0 1 1 1 2 3
4 4 4 4 5 4 4 4 4 4 3 2 2 2 1 1 1 0 1 1 2 2 2 2 1 1 1 1 1 1 1 0 1 1 1 1 2 2 1 0 1 2 2
8 7 6 6 6 5 6 5 4 4 3 3 2 2 2 1 1 0 1 1 2 2 2 3 2 2 2 2 2 2 2 1 0 1 2 2 1 1 1 1 1 0 1
8 7 7 7 7 7 6 5 5 4 3 4 3 3 2 2 2 2 1 1 1 2 2 3 3 2 2 2 2 2 2 2 1 1 1 1 2 1 1 1 1 1 0
9 9 9 9 8 7 6 5 4 4 4 4 4 4 2 2 1 1 1 1 1 2 2 2 2 2 2 2 2 2 2 2 2 2 1 1 1 1 2 1 1 1 1
9 8 7 6 6 6 5 5 4 4 3 4 4 4 4 3 2 2 2 2 1 1 2 2 2 2 2 2 2 2 2 2 2 2 1 2 1 2 2 2 1 1 1
8 8 7 7 7 7 7 6 5 4 4 4 4 4 4 4 4 3 3 2 2 2 2 2 2 2 2 2 2 2 2 2 2 2 1 1 1 1 2 2 1 1 1
8 9 9 8 8 8 7 7 6 5 4 4 4 4 4 3 3 3 3 3 3 2 2 2 2 2 2 2 2 1 1 1 1 1 1 1 1 1 2 2 2 1 0
7 8 8 8 8 8 8 8 7 5 4 5 4 3 3 4 4 3 3 2 2 2 2 2 2 1 1 1 2 1 1 1 1 1 1 1 1 1 1 2 2 2 2
5 6 6 7 7 7 7 6 6 6 5 4 4 4 3 3 2 2 2 2 2 2 2 1 1 1 1 1 1 1 1 1 1 1 1 0 1 1 0 1 1 2 2
6 6 5 5 6 5 6 6 5 5 4 4 3 3 3 2 2 2 2 2 2 2 2 2 1 1 1 1 2 2 2 2 1 1 1 0 1 0 0 0 1 1 2
4 4 5 5 5 6 6 6 5 5 4 4 4 3 2 2 2 2 2 2 2 1 2 2 2 1 1 2 2 2 2 2 1 1 1 1 0 1 1 1 1 1 1
4 4 5 5 6 6 6 6 5 5 4 4 3 3 2 2 2 2 1 1 1 2 2 2 2 1 2 2 2 2 2 2 1 1 1 0 1 1 1 1 1 1 2
5 5 5 4 5 6 5 5 5 4 4 4 3 3 3 3 2 2 1 1 1 2 2 2 1 2 2 1 1 1 2 2 1 1 1 1 1 1 1 1 1 2 3
5 5 5 5 5 5 5 4 4 4 4 4 3 2 2 2 2 2 2 1 1 2 2 2 2 2 2 1 1 2 3 3 2 2 2 2 3 3 2 2 2 3 3
5 5 5 5 5 5 4 4 3 3 4 4 3 2 2 2 2 2 2 2 2 2 2 2 2 2 2 3 4 4 4 4 3 2 2 3 3 4 4 5 4 4 3
5 4 4 4 4 4 4 4 4 4 4 3 3 2 3 3 2 3 3 3 2 2 2 3 3 3 3 4 5 6 4 3 2 2 2 2 3 3 3 5 6 5 5
4 4 3 3 3 4 4 4 5 5 4 4 3 3 3 3 2 3 3 2 2 2 2 2 2 3 3 5 5 6 4 3 3 2 2 2 2 2 3 4 5 4 4
3 3 4 4 4 5 5 6 6 5 5 4 3 2 3 3 3 3 2 2 3 3 2 2 3 3 3 4 5 5 4 3 3 3 3 2 2 3 4 4 4 4 3
3 4 5 5 5 4 5 7 6 5 4 3 2 2 2 3 3 3 3 2 3 3 3 3 3 3 3 5 6 5 3 4 3 3 3 5 4 4 4 4 4 3 2
5 6 6 5 4 4 6 7 5 4 3 3 3 3 3 2 2 2 2 3 3 4 3 4 3 4 4 5 6 6 3 3 3 3 2 2 4 5 4 3 2 2 2
6 6 6 5 4 4 6 6 4 3 3 4 4 4 3 3 3 3 3 3 4 4 3 3 3 3 3 4 5 6 5 4 3 2 2 2 5 6 5 4 4 4 4
5 5 6 6 4 4 5 6 4 4 4 5 5 5 5 4 4 4 3 3 3 3 2 3 3 2 2 3 6 6 6 5 4 3 5 5 5 5 4 6 6 4 3
6 6 6 6 4 3 4 5 4 4 5 6 5 4 5 5 5 4 3 2 2 2 2 2 2 2 2 2 2 3 4 5 4 4 5 6 6 5 5 5 4 3 3
5 5 6 5 4 4 4 4 4 5 6 5 5 4 4 4 4 5 4 3 2 1 2 2 2 3 2 1 2 3 3 2 3 3 3 4 4 4 4 4 4 3 3
5 5 5 6 5 4 4 3 3 4 6 5 4 3 3 3 3 4 5 8 6 7 6 3 3 2 3 4 6 6 6 6 6 5 3 3 3 3 2 2 3 3 3
Wind_Direction
213 196 188 174 165 169 172 172 165 163 145 136 144 141 195 206 241 231 222 206 193 181 163 163 128 125 145 179 152 117 65 48 83 78 28 14 26 350 239 213 211 225 227
197 195 185 177 180 184 187 181 178 171 169 164 156 151 145 164 208 273 272 226 202 197 185 177 176 166 156 146 143 135 115 59 109 130 107 11 360 6 5 247 212 223 213
201 198 193 192 190 195 195 195 191 183 180 165 122 89 66 41 29 309 270 255 213 197 196 193 191 190 176 186 192 169 168 183 168 128 141 149 225 310 356 21 35 179 197
200 198 196 196 197 201 197 194 188 184 181 165 158 158 171 202 214 215 229 267 244 216 206 199 194 195 188 195 204 175 171 166 184 179 167 174 169 162 309 358 21 35 42
198 198 199 198 197 193 189 191 187 190 183 174 174 171 191 209 216 185 227 261 275 249 226 208 198 198 200 203 195 167 174 174 177 178 167 157 138 157 179 261 334 22 9
198 196 196 188 190 183 180 178 182 199 190 182 179 183 195 200 205 221 229 253 268 267 248 217 205 203 202 205 202 188 183 188 185 179 167 162 170 190 181 207 249 295 332
192 187 185 187 190 185 183 180 180 200 196 189 194 200 205 201 210 218 218 231 251 254 247 224 209 211 211 207 198 191 193 186 179 188 194 195 208 182 171 171 206 226 279
190 189 190 191 193 190 184 182 185 195 192 193 205 203 206 210 220 218 213 221 230 244 250 225 217 220 219 209 186 184 203 167 163 197 202 211 233 200 186 180 173 189 247
187 189 187 186 185 187 188 188 185 187 187 193 200 197 203 209 214 215 214 218 225 236 237 229 234 236 212 194 170 157 197 148 156 191 207 246 269 218 211 197 180 176 189
183 183 180 178 180 182 178 175 179 186 186 191 197 202 203 209 208 196 211 217 223 221 215 227 228 213 177 171 151 147 159 141 145 160 137 287 301 300 228 199 192 182 172
186 181 172 167 163 156 157 161 172 172 170 187 197 194 193 194 189 194 219 223 223 212 207 204 194 171 146 132 137 150 145 143 125 108 124 282 339 358 348 124 151 154 148
169 160 151 144 146 149 152 159 166 171 179 181 182 184 178 168 176 199 219 207 204 192 184 175 168 157 142 133 141 159 165 168 170 178 172 258 70 60 39 93 120 138 148
128 123 127 140 147 147 148 152 155 163 160 160 171 165 157 161 185 205 208 187 175 144 140 152 163 163 147 140 154 170 172 177 192 183 165 184 119 99 83 100 113 116 122
125 122 124 138 143 142 146 150 153 155 150 150 155 164 177 186 194 193 166 139 141 136 131 145 155 144 136 133 145 159 154 158 152 112 105 91 130 167 147 125 130 119 110
124 130 139 143 138 138 141 145 153 145 140 141 149 170 164 155 142 127 112 112 132 139 128 124 106 104 112 103 112 127 129 126 105 68 52 57 68 81 93 105 123 123 119
142 141 141 142 144 144 142 139 135 127 129 140 151 143 128 123 124 123 118 102 94 94 100 104 99 84 72 71 90 100 103 106 103 85 55 54 55 59 66 80 92 110 127
151 148 149 152 142 136 133 131 129 121 125 131 127 118 121 120 129 130 120 114 106 102 101 96 91 85 69 75 84 87 96 96 93 91 77 66 59 64 76 74 69 63 68
152 144 138 130 115 110 111 117 117 119 121 118 114 113 121 124 119 116 120 117 112 112 106 100 102 97 77 81 96 95 92 87 78 75 85 82 50 58 89 88 73 61 49
148 137 129 123 110 105 109 108 106 110 111 113 111 112 124 120 114 110 114 121 118 113 111 99 100 98 72 69 92 99 97 91 72 60 61 71 63 59 84 95 90 69 45
118 115 111 107 105 103 108 107 103 102 105 108 107 104 109 118 127 135 136 131 126 125 109 90 81 84 70 61 77 98 103 98 84 66 55 62 74 75 80 98 106 93 53
122 117 112 109 113 116 114 107 103 102 96 99 100 93 97 105 114 117 121 118 115 106 101 96 76 66 66 66 70 80 95 107 98 84 63 49 66 77 78 86 96 116 109
116 115 110 102 99 110 114 110 108 110 99 96 87 80 77 82 88 95 96 104 115 112 107 97 76 59 60 66 72 73 76 90 101 98 79 68 74 71 67 67 66 80 84
121 113 111 103 93 98 117 119 118 106 101 92 85 79 73 68 73 91 99 97 102 113 114 105 91 69 58 62 75 81 81 82 87 87 86 80 74 72 65 57 60 73 80
124 120 116 113 107 101 103 115 118 112 106 99 91 85 83 75 63 62 70 89 100 114 112 109 105 93 75 64 68 76 81 79 81 77 74 72 69 68 64 57 55 60 69
124 126 129 127 119 109 102 101 110 115 110 104 99 91 86 89 78 65 52 60 47 98 139 139 135 129 117 102 106 113 104 105 105 93 68 58 57 55 49 47 47 48 52
124 123 125 126 122 116 110 103 103 120 120 115 110 105 100 94 93 90 67 50 59 58 66 89 115 96 112 108 96 97 98 98 105 98 83 70 61 58 50 46 39 37 37